Location: Marsån
(66.4167°N, 22.2833°E)
Time: 11:42:58
(UTC+00:00)

Cosmos 2221 - Pass Details

Date: 24 February 2024
Orbit: 583 x 604 km, 82.5° (Epoch: 15 April)

Event Time Altitude Azimuth Distance (km) Brightness Sun altitude
Rises 16:30:28 0° 340° (NNW) 2,851 6.1 -7.3°
Reaches altitude 10° 16:32:43 10° 344° (NNW) 1,941 5.2 -7.5°
Maximum altitude 16:36:59 66° 67° (ENE) 652 2.5 -8.0°
Drops below altitude 10° 16:41:12 10° 150° (SSE) 1,917 4.8 -8.4°
Sets 16:43:24 0° 154° (SSE) 2,811 5.7 -8.6°
